Pittsburgh, PA

8:40 PM EDT on October 17, 2017 (GMT -0400)
Pittsburgh International

Weather History for KPIT - January, 2014

Change the Weather History Date:

Friday, January 24, 2014

  Actual Average Record
Temperature  
Mean Temperature 10 °F 28 °F  
Max Temperature 19 °F 36 °F 66 °F (1909)
Min Temperature 0 °F 21 °F -18 °F (1963)
Degree Days  
Heating Degree Days 55 37  
Month to date heating degree days 987 884  
Since 1 July heating degree days 3104 3059  
Cooling Degree Days 0 0  
Month to date cooling degree days 0 0  
Year to date cooling degree days 0 0  
Moisture  
Dew Point -2 °F    
Average Humidity 65    
Maximum Humidity 87    
Minimum Humidity 42    
Precipitation  
Precipitation T in 0.09 in 1.18 in (1941)
Month to date precipitation 1.86 2.11  
Year to date precipitation 1.86 2.11  
Snow  
Snow T in 0.40 in 7.50 in (1899)
Month to date snowfall 10.9 8.8  
Since 1 July snowfall 35.3 19.5  
Snow Depth 2.00 in    
Sea Level Pressure  
Sea Level Pressure 30.34 in    
Wind  
Wind Speed 12 mph (SW)    
Max Wind Speed 23 mph    
Max Gust Speed 30 mph    
Visibility 8 miles    
Events Snow    
T = Trace of Precipitation, MM = Missing Value Source: NWS Daily Summary

Daily Weather History Graph

Daily Weather History Graph

Search for Another Location

Airport or City:

Trip Planner

Search our weather history database for the weather conditions in past years. The results will help you decide how hot, cold, wet, or windy it might be!

Date:

Astronomy

Jan. 24, 2014 Rise Set
Actual Time 7:37 AM EST 5:29 PM EST
Civil Twilight 7:07 AM EST 5:58 PM EST
Nautical Twilight 6:34 AM EST 6:31 PM EST
Astronomical Twilight 6:02 AM EST 7:04 PM EST
Moon 1:02 AM EST (1/24) 11:47 AM EST (1/24)
Length of Visible Light 10h 51m
Length of Day
9h 52m
Last Quarter, 45% of the Moon is Illuminated
Jan 24
Last Quarter
Jan 30
New
Feb 6
First Quarter
Feb 14
Full
Feb 22
Last Quarter

Hourly Weather History & Observations

Time (EST) Temp. Windchill Dew Point Humidity Pressure Visibility Wind Dir Wind Speed Gust Speed Precip Events Conditions
12:51 AM 5.0 °F -8.1 °F -0.9 °F 76% 30.50 in 9.0 mi WSW 8.1 mph - 0.00 in Snow Light Snow
1:51 AM 5.0 °F -6.9 °F -0.9 °F 76% 30.50 in 8.0 mi WSW 6.9 mph - 0.00 in Snow Light Snow
2:51 AM 3.9 °F -8.2 °F -2.0 °F 76% 30.52 in 8.0 mi West 6.9 mph - 0.00 in Snow Light Snow
3:51 AM 3.9 °F -5.3 °F -2.0 °F 76% 30.53 in 6.0 mi SW 4.6 mph - 0.00 in Snow Light Snow
4:35 AM 3.2 °F -6.2 °F -0.4 °F 85% 30.42 in 7.0 mi SSW 4.6 mph - 0.00 in Snow Light Snow
4:51 AM 3.0 °F -8.0 °F -2.0 °F 80% 30.53 in 9.0 mi SW 5.8 mph - 0.00 in Snow Light Snow
5:17 AM 1.4 °F -9.9 °F -2.2 °F 85% 30.42 in 7.0 mi SW 5.8 mph - 0.00 in Snow Light Snow
5:51 AM 3.0 °F -10.5 °F -2.0 °F 80% 30.53 in 9.0 mi SW 8.1 mph - 0.00 in Snow Light Snow
6:10 AM 1.4 °F -9.9 °F -2.2 °F 85% 30.42 in 9.0 mi SW 5.8 mph - 0.00 in Snow Light Snow
6:46 AM 1.4 °F -9.9 °F -2.2 °F 85% 30.42 in 8.0 mi SSW 5.8 mph - 0.00 in Snow Light Snow
6:51 AM 1.9 °F -11.8 °F -2.9 °F 80% 30.53 in 8.0 mi SSW 8.1 mph - 0.00 in Snow Light Snow
7:30 AM 1.4 °F -12.5 °F -4.0 °F 78% 30.41 in 7.0 mi SSW 8.1 mph - 0.00 in   Scattered Clouds
7:51 AM 1.0 °F -14.0 °F -4.0 °F 79% 30.53 in 7.0 mi SSW 9.2 mph - 0.00 in   Scattered Clouds
8:07 AM 1.4 °F -16.1 °F -4.0 °F 78% 30.41 in 6.0 mi SSW 12.7 mph - 0.00 in Snow Light Snow
8:51 AM 1.0 °F -14.9 °F -4.0 °F 79% 30.52 in 5.0 mi SSW 10.4 mph - 0.00 in Snow Light Snow
9:34 AM 1.4 °F -15.3 °F -4.0 °F 78% 30.39 in 2.0 mi SSW 11.5 mph - 0.00 in Snow Light Snow
9:51 AM 1.9 °F -16.9 °F -4.0 °F 76% 30.50 in 2.0 mi SSW 15.0 mph 20.7 mph 0.00 in Snow Light Snow
10:22 AM 3.2 °F -11.3 °F -2.2 °F 78% 30.38 in 4.0 mi SW 9.2 mph - 0.00 in Snow Light Snow
10:51 AM 5.0 °F -13.0 °F -2.9 °F 70% 30.48 in 6.0 mi SW 15.0 mph 21.9 mph 0.00 in Snow Light Snow
11:51 AM 7.0 °F -10.4 °F -0.9 °F 70% 30.44 in 6.0 mi SW 15.0 mph 23.0 mph 0.00 in Snow Light Snow
12:51 PM 9.0 °F -6.6 °F -0.0 °F 67% 30.37 in 9.0 mi SW 12.7 mph 20.7 mph 0.00 in   Mostly Cloudy
1:51 PM 10.9 °F -4.7 °F -0.0 °F 61% 30.34 in 10.0 mi SSW 13.8 mph 23.0 mph N/A   Mostly Cloudy
2:51 PM 12.0 °F -5.1 °F -0.9 °F 56% 30.27 in 10.0 mi SSW 17.3 mph 26.5 mph N/A   Mostly Cloudy
3:51 PM 14.0 °F -3.4 °F -2.0 °F 49% 30.24 in 10.0 mi SSW 19.6 mph 26.5 mph N/A   Mostly Cloudy
4:51 PM 12.9 °F -0.2 °F -2.9 °F 49% 30.20 in 10.0 mi SSW 10.4 mph 21.9 mph N/A   Mostly Cloudy
5:51 PM 12.9 °F -1.6 °F -2.9 °F 49% 30.16 in 10.0 mi South 12.7 mph 23.0 mph N/A   Mostly Cloudy
6:51 PM 14.0 °F -2.0 °F -2.9 °F 47% 30.11 in 10.0 mi SSW 16.1 mph 21.9 mph N/A   Overcast
7:51 PM 14.0 °F -1.4 °F -4.0 °F 45% 30.07 in 10.0 mi SSW 15.0 mph 20.7 mph N/A   Overcast
8:51 PM 15.1 °F -0.6 °F -4.0 °F 43% 30.01 in 10.0 mi SSW 16.1 mph 23.0 mph N/A   Overcast
9:51 PM 17.1 °F 3.0 °F -2.9 °F 41% 29.95 in 10.0 mi SSW 13.8 mph 23.0 mph N/A   Overcast
10:51 PM 17.1 °F 3.6 °F -2.0 °F 43% 29.93 in 10.0 mi SSW 12.7 mph - N/A   Overcast
11:51 PM 19.0 °F 5.6 °F -0.9 °F 42% 29.88 in 10.0 mi SW 13.8 mph 23.0 mph N/A   Overcast